Location: Jefferson Observatory
(34.1602°N, 83.6058°W)
Time: 14:43:42
(UTC-04:00)

Envisat - Visible Passes

Search period start: 24 June 2018 00:00
Search period end: 04 July 2018 00:00
Orbit: 764 x 766 km, 98.2° (Epoch: 24 June)

Date Brightness Start Highest point End Pass type
(mag) Time Alt. Az. Time Alt. Az. Time Alt. Az.
24 Jun 5.6 22:12:37 10° SW 22:15:17 14° W 22:17:59 10° WNW visible
25 Jun 4.6 21:33:44 10° SSW 21:38:19 34° W 21:42:56 10° NNW visible
27 Jun 5.5 22:00:32 10° SW 22:04:02 19° W 22:07:34 10° NW visible
28 Jun 4.1 21:22:18 10° S 21:27:07 44° W 21:31:58 10° NNW visible
30 Jun 5.2 21:48:44 10° SSW 21:52:48 24° W 21:56:53 10° NW visible
01 Jul 3.7 21:10:57 10° S 21:15:56 58° W 21:20:57 10° NNW visible
02 Jul 5.7 22:16:22 10° WSW 22:18:35 13° W 22:20:48 10° WNW visible
03 Jul 4.8 21:37:07 10° SSW 21:41:35 31° W 21:46:04 10° NW visible
